Regional Weather Roundup
Issued by NWS Boston, MA

Home | Current Version | Previous Version | Text Only | Print | Product List | Glossary On
Versions: 1 2 3 4 5 6 7 8 9 10 11 12 13 14 15 16 17 18 19 20 21 22 23 24 25 26 27 28
000
ASUS41 KBOX 021110
RWRBOX

REGIONAL WEATHER ROUNDUP
NATIONAL WEATHER SERVICE TAUNTON MA
700 AM EDT MON MAY 02 2016

NOTE:  "FAIR" INDICATES FEW OR NO CLOUDS BELOW 12,000 FEET WITH NO
SIGNIFICANT WEATHER AND/OR OBSTRUCTIONS TO VISIBILITY.  THE FOLLOWING
OBSERVATION LOCATIONS DO NOT REPORT PRESENT WEATHER...PROVINCETOWN...
SMITHFIELD...BLOCK ISLAND...KEENE...AND OXFORD.

MAZALL-021200-
EASTERN MASSACHUSETTS

CITY           SKY/WX    TMP DP  RH WIND       PRES   REMARKS
BOSTON         FOG       46  45  96 NE10      30.06S VSB 1/2
BEVERLY        CLOUDY    45  43  93 NE8       30.06S FOG
LAWRENCE       CLOUDY    45  43  93 NE9       30.09R FOG
BEDFORD          N/A     44  43  96 N3        30.05S FOG
BLUE HILL        N/A     44  44 100 NE9       30.03R
NORWOOD        CLOUDY    47  45  93 NE5       30.05R FOG
MARSHFIELD     FOG       46  46 100 NE5       30.07R VSB 1
PLYMOUTH       CLOUDY    47  47 100 N8        30.04R FOG
TAUNTON        CLOUDY    49  46  90 N6        30.04R FOG
NEW BEDFORD    CLOUDY    49  48  97 N6        30.02R FOG
$$

MAZALL-021200-
CAPE COD AND THE ISLANDS

CITY           SKY/WX    TMP DP  RH WIND       PRES   REMARKS
FALMOUTH       FOG       48  48 100 NE8       30.02R VSB 1
HYANNIS        LGT RAIN  50  49  96 NE5       30.00R FOG
CHATHAM        CLOUDY    48  47  96 NE7       30.03R FOG
PROVINCETOWN   CLOUDY    48  47  96 E9        30.04S FOG
NANTUCKET      CLOUDY    52  49  89 E13       29.99R FOG
MARTHAS VNYRD  CLOUDY    50  49  96 NE8       30.00R FOG
$$

MAZALL-021200-
CENTRAL AND WESTERN MASSACHUSETTS

CITY           SKY/WX    TMP DP  RH WIND       PRES   REMARKS
WORCESTER      FOG       39  39 100 NE8       30.02F VSB<1/4
FITCHBURG      CLOUDY    43  41  93 N3        30.06F FOG
ORANGE         CLOUDY    42  41  96 NE5       30.03F FOG
SPRINGFIELD    CLOUDY    42  41  95 NE5       30.02F
WESTFIELD      CLOUDY    42  40  92 N7        30.03F
NORTH ADAMS    CLOUDY    43  39  86 S6        30.01F
PITTSFIELD     CLOUDY    41  39  93 CALM      29.98F
$$

RIZALL-021200-
RHODE ISLAND

CITY           SKY/WX    TMP DP  RH WIND       PRES   REMARKS
PROVIDENCE     CLOUDY    46  44  93 N9        30.04R FOG
NEWPORT        CLOUDY    47  47 100 N8        30.01S FOG
BLOCK ISLAND   CLOUDY    47  46  97 N7        30.01S FOG
SMITHFIELD       N/A     43  41  93 N9        30.03R VSB<1/4
WESTERLY       CLOUDY    47  44  90 N7        30.00F
$$

CTZALL-021200-
CONNECTICUT

CITY           SKY/WX    TMP DP  RH WIND       PRES   REMARKS
BRADLEY INTL   CLOUDY    43  41  93 N7        30.02F
HARTFORD       CLOUDY    45  42  89 N8        30.03S FOG
BRIDGEPORT     CLOUDY    46  43  89 NE8       30.01S
DANBURY        CLOUDY    43  41  93 E3        30.01S FOG
GROTON         CLOUDY    46  46 100 N8        30.00F
NEW HAVEN      CLOUDY    44  43  96 N7        30.01S FOG
CHESTER        CLOUDY    43  43 100 N6        30.01R FOG
MERIDEN        CLOUDY    44  41  89 N6        30.02F
WILLIMANTIC    CLOUDY    46  42  86 NE5       30.02F
OXFORD         FOG       43  39  87 E6        30.01F VSB 1/4
$$

MEZ002-015-021-024-NHZ003-005-008-011-012-014-VTZ005-008-021200-
NORTHERN NEW ENGLAND

CITY           SKY/WX    TMP DP  RH WIND       PRES   REMARKS
PORTLAND ME    CLOUDY    43  42  97 E7        30.12R FOG
BANGOR ME      LGT RAIN  44  35  70 SE3       30.16S
CONCORD NH     CLOUDY    43  40  89 NE5       30.07F FOG
MANCHESTER NH  DRZL/FOG  43  41  93 NE6       30.05F VSB 3/4
NASHUA NH      CLOUDY    43  42  97 NE5       30.07F FOG
PORTSMOUTH NH  CLOUDY    44  42  95 NE9       30.08R FOG
JAFFREY NH     FOG       39  38  96 CALM      30.04F VSB 1
KEENE NH       CLOUDY    43  39  87 NE3       30.05F
BURLINGTON VT  CLOUDY    44  39  82 SE7       30.00F
MT. WASHINGTON FOG       28  28 100 SW21        N/A  VSB 1/16WCI  15
$$

NYZ052-076-021200-
EASTERN NEW YORK

CITY           SKY/WX    TMP DP  RH WIND       PRES   REMARKS
ALBANY         CLOUDY    45  41  86 S5        30.00S
NEW YORK CITY  CLOUDY    47  44  90 NE7       30.00S FOG
$$

ANZALL-021200-
MARINE OBSERVATIONS

STATION/POSITION TIME  TEMP    WIND        PRES    VSBY  WAVE
                       AIR SEA DIR/SP/G                  HT/PER
                 (UTC) (F)     (DEG/KT/KT) (MB)    (MI)  (FT/S)
BOSTON BUOY      1050   46 47   40/ 10/ 12 1017.0R         3/ 8
BUZZARDS BAY     1000   47      20/ 13/ 13 1016.2R
NANTUCKET SOUND  1050   49 50   70/  8/ 10 1015.7S         2/ 4
MASS BAY-STELLWA 1004   45 46                N/A    1 7/8  4/10
ISLE OF SHOALS   1000   43      60/ 14/ 15 1017.7S
S OF BLOCK IS    NOT AVBL
$$

......................KEY.........................
  SKY/WX - SKY CONDITION/PRESENT WEATHER
  TMP    - TEMPERATURE IN FAHRENHEIT
  DWPT   - DEWPOINT IN FAHRENHEIT
  RH     - RELATIVE HUMIDITY IN PERCENT
  WIND   - DIRECTION AND SPEED IN MPH
  PRES   - MEAN SEA LEVEL PRESSURE IN INCHES OF HG
  WCI    - WIND CHILL INDEX
  VSB    - VISIBILITY IN MILES
  HX     - HEAT INDEX
  TC     - TEMPERATURE IN CELSIUS
  VRB    - VARIABLE WIND DIRECTION
  N/A    - NOT AVAILABLE




USA.gov is the U.S. government's official web portal to all federal, state and local government web resources and services.